Starlink 35486

operational
NORAD ID: 66253 Int'l Des: 2025-245 Owner: SPXS Country: US Constellation: starlink
LEOCIRCULAR

About Starlink 35486

Description loading...

Live Position

Loading 3D Globe...

Upcoming Passes

Altitude History

Altitude vs Time

uPlot chart will show altitude changes over time

Two-Line Element Set

1 66253U 25245V 25310.58334491 -.00003503 11075-4 00000+0 0 9997
2 66253 53.1535 143.6990 0000579 79.2479 39.6840 15.91893018 2295
Epoch: Nov 6, 2025 • Age: 14 hours

Current Status

Altitude 314.4 km
Velocity 7.72 km/s
Sub-Earth Point -49.49°S, 86.92°W
Launch Date Oct 29, 2025
Age 8 days
Type internet

Technical Details

Classification Payload
Mass 575.00 kg
Dry Mass 530.00 kg
Total Mass 575.00 kg
Length 0.30 m
Diameter 4.10 m
Span 29.00 m
Shape Box + pan
Manufacturer SPXS
Bus Type Starlink V2MO
Phase Status In Orbit
Owner/State SPXS/US

Large Constellations

Loading constellations...